Back to catalog

CZ-4 DEB

AlivePO
NORAD 26211·DEBRIS·🇨🇳 China

Launched Oct 14, 1999 from Taiyuan Satellite Launch Center

Loading…

Next Passes (next 24 hours)

TLE

FreshSource: Space-Track

Epoch: Sep 14, 2026, 14:02 UTC

1 26211U 99057CZ  26257.58527286  .00000019  00000-0  48029-4 0  9994
2 26211  98.9209 307.2123 0540121  35.5517 117.7744 13.33469837286079

Track CZ-4 DEB in real time with AllMySat

Download on the App Store